Temperature
20 19 19 19 18 18 18 18 18 19 19 19 19 19 19 19 19 19 19 19 19 19 19 19 19 19 19 19 18 19 19 18 18 18 18 18 17 17 17 16 16 16 16
19 19 19 19 19 19 19 18 18 18 18 19 19 19 19 19 19 19 19 19 19 19 19 19 19 19 19 18 18 18 19 19 18 18 18 18 18 17 17 17 17 16 16
19 19 19 19 19 19 19 18 18 18 18 18 18 18 18 19 19 19 19 19 19 19 19 19 19 19 19 19 18 18 18 18 18 18 18 18 18 18 17 17 17 17 17
18 18 19 19 19 19 18 18 18 18 18 18 18 18 19 19 19 19 19 19 19 19 19 19 19 18 19 19 19 18 18 18 18 18 18 18 18 18 18 18 17 17 17
18 19 19 19 18 18 18 18 18 18 18 18 18 18 19 19 19 19 19 19 19 19 19 19 19 18 18 18 18 18 18 18 18 18 18 18 18 17 17 17 17 17 17
19 18 18 18 18 18 18 18 18 18 18 18 18 18 18 19 19 19 19 19 19 19 19 19 19 18 18 18 18 18 18 18 18 18 18 18 18 18 17 17 17 17 16
18 18 18 18 18 18 18 18 18 18 18 18 18 18 18 18 19 19 19 19 19 19 19 18 18 18 18 18 18 18 18 17 17 18 18 18 18 18 18 17 17 17 16
18 18 18 18 18 18 18 18 17 17 18 18 17 17 17 18 19 19 19 18 18 18 18 18 18 18 18 18 18 18 18 18 18 18 18 18 17 18 18 18 17 17 17
17 17 17 17 17 17 17 17 17 17 17 17 17 16 16 16 17 17 17 17 17 18 18 18 18 18 18 18 18 17 18 18 17 18 18 17 17 18 18 18 17 17 17
17 17 16 16 16 16 16 16 16 16 16 16 16 16 16 15 15 16 17 17 17 17 17 18 17 17 17 17 17 17 17 17 17 17 17 17 17 17 17 17 17 17 17
16 16 16 16 16 16 16 16 16 16 16 16 16 15 15 15 15 15 15 16 16 16 17 17 17 17 17 17 17 17 17 17 16 17 17 17 16 17 17 17 17 17 17
16 16 16 16 15 15 15 15 15 15 15 15 15 15 15 15 15 15 15 15 16 16 16 16 17 16 16 16 16 16 16 16 16 16 16 16 16 16 16 16 17 17 17
15 15 15 15 15 15 15 15 15 15 15 15 15 15 15 14 15 15 15 15 15 16 16 16 16 16 16 16 16 16 16 16 16 16 16 16 16 16 16 16 16 16 16
14 14 14 15 15 15 15 15 15 15 14 14 14 14 14 14 14 15 15 15 15 15 15 14 15 15 15 15 15 15 15 16 16 16 16 16 16 16 16 16 16 16 16
13 13 13 14 14 14 14 14 14 14 14 14 14 14 13 14 14 14 14 14 14 14 14 14 14 14 14 14 15 15 15 15 15 15 15 15 15 15 15 15 15 15 15
12 12 13 13 13 14 14 14 14 13 13 14 13 13 13 13 13 14 14 14 14 14 14 14 14 14 14 14 14 14 14 15 15 15 15 15 15 15 15 14 14 14 14
12 12 12 12 13 13 13 13 13 13 13 13 13 13 13 13 13 13 13 14 14 14 14 13 13 13 14 14 13 13 14 14 14 15 15 15 14 14 14 14 14 13 13
12 12 12 12 12 13 13 13 13 13 13 13 12 13 13 13 13 13 13 13 13 14 13 13 13 13 13 13 13 13 13 13 14 14 14 14 13 13 13 13 13 13 13
12 12 12 12 12 12 13 13 13 12 12 12 12 12 12 13 13 13 13 13 13 13 13 13 13 13 13 13 13 13 13 13 13 13 13 13 12 12 13 13 13 13 13
12 12 12 12 12 12 12 12 12 12 12 12 12 12 12 13 13 13 13 13 13 13 13 13 13 13 12 12 13 13 12 12 12 12 12 12 12 12 12 12 12 12 12
12 12 12 12 12 12 11 11 11 11 12 12 12 12 12 12 12 12 12 13 13 13 13 13 13 12 12 12 12 12 12 12 12 12 12 12 12 12 12 12 12 12 12
12 11 12 12 11 11 11 11 11 11 11 12 12 12 12 12 12 12 12 12 12 12 12 12 12 12 11 11 11 12 11 11 11 11 12 12 12 12 11 11 11 11 11
11 11 12 12 11 11 11 11 11 11 11 12 12 12 12 12 12 11 11 11 12 12 12 12 12 11 11 11 11 11 11 11 10 10 11 11 12 11 11 11 11 11 11
11 11 12 12 12 11 11 11 11 11 11 11 11 11 12 11 11 11 11 11 11 11 11 11 11 11 11 11 11 11 11 11 10 10 10 11 11 11 10 10 10 10 10
11 11 12 12 11 11 11 11 11 11 11 11 11 11 12 12 11 11 11 11 11 11 11 11 11 11 10 10 10 10 10 10 10 10 10 10 10 11 10 10 10 10 10
11 12 12 11 11 11 11 11 11 11 11 11 11 11 11 11 11 11 11 11 11 11 11 11 11 10 10 10 10 10 10 10 9 9 9 9 9 10 10 9 9 9 9
Wind_Speed
9 7 7 9 11 12 10 8 8 9 10 12 12 12 11 11 12 14 14 21 23 22 23 24 26 26 26 25 24 24 24 23 23 23 24 24 24 24 25 25 25 25 25
8 10 10 8 8 11 12 9 9 11 11 9 9 9 10 10 12 14 15 18 22 24 25 27 27 26 25 25 25 25 25 24 24 24 25 25 25 25 25 25 25 25 25
13 10 10 9 8 10 10 7 7 6 7 6 7 7 7 7 9 11 14 16 17 21 26 27 27 26 26 25 25 26 25 24 24 24 26 26 26 26 26 26 26 25 24
16 9 9 9 7 7 5 5 5 4 5 5 5 5 5 6 9 9 11 13 15 16 20 26 27 26 27 27 27 26 26 26 25 25 26 26 26 26 26 27 27 25 24
12 8 10 10 7 6 7 6 5 4 5 5 5 6 6 7 9 10 9 11 13 15 17 20 23 25 27 28 27 27 27 27 27 27 27 27 27 26 26 27 25 25 24
10 7 9 10 9 8 8 6 6 6 5 5 6 7 7 8 9 10 11 10 10 13 16 17 15 17 25 28 27 27 27 27 28 27 26 27 27 27 26 25 24 24 25
8 7 7 8 9 10 11 10 7 7 7 4 3 5 6 10 13 13 11 10 11 10 12 14 12 12 13 20 23 24 27 27 26 24 25 27 28 28 27 24 24 25 25
7 7 8 7 7 7 8 8 7 5 5 6 5 3 4 5 7 10 10 10 10 9 11 10 8 8 9 9 11 16 19 22 24 25 25 26 28 28 27 26 26 26 27
7 8 8 8 8 8 8 10 9 8 7 7 7 5 4 6 4 4 4 5 5 5 6 5 6 6 6 6 6 10 16 18 21 22 23 25 27 27 27 26 27 27 27
10 9 9 9 9 8 9 9 9 8 8 7 5 6 5 4 3 4 4 3 4 3 3 3 4 4 2 1 1 6 10 13 15 16 18 22 25 24 24 26 27 27 27
10 10 9 9 9 9 9 9 8 9 8 7 6 4 5 5 6 5 5 4 3 3 3 3 2 1 2 3 2 1 2 4 7 10 12 15 20 22 24 27 27 26 27
10 11 10 9 9 9 10 10 9 9 8 8 7 6 5 4 5 5 6 3 3 3 3 3 2 2 2 2 1 1 2 4 6 7 7 7 9 12 16 22 25 26 27
11 12 11 9 9 9 9 8 8 8 8 7 7 6 5 5 4 4 3 2 1 2 4 4 4 4 3 1 0 1 1 3 5 6 5 5 5 5 5 5 7 11 17
11 12 11 9 9 8 7 7 6 7 7 8 8 7 5 5 4 3 3 3 2 2 4 4 3 5 4 2 1 0 1 4 5 6 5 6 6 6 5 4 4 4 5
9 10 9 7 5 4 4 5 4 6 6 7 7 7 5 3 2 2 2 3 4 2 2 3 3 4 4 3 3 3 3 5 7 8 7 5 6 6 6 5 5 6 8
9 10 9 5 3 1 2 3 3 3 4 3 3 5 4 2 2 2 3 3 3 4 2 1 2 3 4 4 7 7 8 9 9 10 8 5 4 6 7 8 9 9 10
8 9 9 8 5 3 1 0 1 2 3 3 3 4 5 5 4 3 4 4 3 3 3 2 4 5 7 6 5 6 8 8 9 14 9 4 5 6 8 9 10 11 12
7 7 8 8 6 5 5 4 4 3 4 4 5 6 7 7 6 5 5 5 4 3 4 6 5 6 6 5 5 5 5 7 8 14 12 8 6 6 6 8 10 11 12
7 7 7 7 7 6 7 6 7 6 7 7 8 9 8 9 9 7 7 6 5 6 6 6 4 3 3 3 4 4 5 5 6 11 13 11 9 9 9 10 10 11 11
6 7 6 6 6 6 6 8 9 9 8 8 8 9 8 8 8 8 7 7 8 9 7 6 4 4 4 3 4 4 4 4 4 6 7 7 7 7 8 10 11 12 13
5 5 3 5 6 5 5 8 8 9 9 10 10 10 10 11 11 8 7 7 8 7 6 6 4 5 5 5 5 4 4 4 3 3 4 4 3 4 4 8 11 15 15
3 0 3 5 5 4 6 10 9 9 9 11 10 9 9 9 11 14 15 13 10 7 6 4 3 4 4 4 4 4 4 5 4 5 4 4 3 4 4 4 10 14 16
3 4 4 5 5 5 8 11 11 9 9 9 9 9 9 9 11 10 13 13 12 12 7 5 4 3 3 3 4 5 5 2 1 4 3 4 4 4 5 5 9 12 15
5 5 4 5 6 7 13 14 14 11 10 8 8 9 9 9 8 10 10 10 9 8 7 4 3 2 2 0 1 2 1 2 3 3 3 3 4 4 4 4 8 11 14
5 5 5 6 7 7 13 14 13 9 8 7 7 8 10 10 13 15 12 10 10 9 10 14 13 10 10 9 6 6 6 5 3 4 3 3 4 4 4 4 7 14 16
6 7 6 6 7 6 10 14 13 8 8 6 6 7 11 12 14 14 11 10 10 7 8 10 11 10 8 8 10 6 4 4 2 3 4 4 5 5 5 4 5 8 10
Wind_Direction
230 229 234 231 227 224 225 225 230 237 240 241 239 242 248 243 236 237 243 247 243 234 227 218 216 220 224 224 223 225 228 230 230 231 233 233 233 233 231 228 225 220 217
232 234 233 228 222 220 221 221 225 233 237 237 234 234 241 244 240 238 241 246 242 232 228 226 225 225 225 225 225 226 228 230 231 230 232 232 232 231 230 229 227 224 221
235 236 235 233 226 217 211 211 219 221 227 225 229 235 243 251 249 239 238 240 241 236 233 232 232 231 228 228 229 229 229 231 232 231 231 233 232 229 226 225 225 224 223
239 237 236 238 228 213 200 199 196 201 212 213 224 241 252 263 260 249 243 241 241 242 239 236 236 235 232 231 232 231 229 229 231 232 231 231 231 228 225 223 223 223 222
248 234 237 238 226 216 212 208 201 195 211 221 230 243 245 249 255 256 250 244 242 239 239 240 240 237 236 237 236 236 233 230 230 231 230 230 229 228 227 225 223 222 222
255 236 240 237 224 223 226 220 213 203 210 214 235 250 246 245 248 247 246 246 245 243 242 242 240 240 240 241 241 241 239 235 234 233 231 229 228 228 228 227 224 222 221
258 243 243 240 229 227 227 220 214 214 220 187 207 264 265 249 248 249 246 243 245 244 241 241 233 233 242 245 246 246 246 243 239 235 233 229 226 226 225 224 222 221 220
267 253 243 242 236 233 229 219 211 213 215 187 196 220 281 298 259 248 248 247 249 247 239 233 226 225 229 233 239 244 246 243 239 235 236 233 226 223 222 220 219 219 219
277 267 251 245 240 229 232 229 219 215 225 217 204 193 205 241 294 292 260 257 270 257 241 224 209 212 225 231 242 252 251 249 247 242 238 238 230 222 219 218 219 219 220
282 272 263 252 243 232 230 231 224 219 217 226 215 214 214 198 227 300 309 303 298 274 262 236 211 211 207 141 268 276 267 264 262 257 245 241 238 228 219 218 221 222 221
291 281 271 261 248 234 226 224 223 217 212 213 206 196 217 228 223 231 273 300 316 285 265 265 262 252 149 150 156 47 350 304 289 281 268 253 247 241 229 222 224 226 226
300 289 278 264 248 235 226 224 224 220 215 212 205 192 186 196 206 212 228 250 288 299 328 353 3 18 79 120 140 111 40 9 357 347 329 304 280 270 254 238 233 232 232
300 290 280 265 251 237 227 217 210 213 208 202 198 195 195 206 200 191 181 187 327 337 354 6 17 25 36 51 14 144 62 6 5 4 357 354 347 343 335 311 277 257 246
301 293 281 265 250 236 223 212 210 212 210 212 210 202 200 214 200 175 157 145 108 24 27 9 3 23 17 6 344 113 324 329 338 335 332 341 346 353 2 357 334 303 284
319 320 310 286 260 233 215 200 208 214 213 216 213 205 199 192 171 161 149 139 133 108 59 349 5 358 5 14 30 29 349 323 317 309 302 313 335 343 346 340 316 291 276
334 342 345 340 324 272 214 199 209 212 194 191 182 173 161 134 130 144 140 129 133 136 117 329 358 349 2 10 19 19 11 3 347 330 308 304 336 349 347 338 326 310 293
336 348 353 358 355 346 336 187 201 177 143 111 96 127 126 119 122 129 122 125 126 120 118 36 17 13 26 20 14 23 30 25 7 2 354 6 22 11 354 337 324 311 300
330 344 353 1 11 28 42 58 67 78 89 97 103 103 107 110 99 91 89 90 95 105 113 91 43 23 19 12 21 31 29 28 13 17 33 53 60 43 12 347 332 318 305
326 343 355 6 20 37 49 60 80 90 94 97 102 104 105 103 92 87 84 84 81 82 93 99 69 15 13 7 6 18 36 24 23 34 44 54 53 43 30 13 360 349 331
320 337 350 9 24 36 62 81 97 99 95 91 89 88 86 92 96 92 85 84 90 91 87 89 72 27 15 347 19 17 13 7 16 26 32 28 23 18 14 9 3 355 344
303 329 26 40 37 40 79 105 109 105 98 89 79 73 69 77 83 84 87 84 89 93 87 80 64 38 19 14 2 351 6 350 348 5 356 345 339 337 339 352 358 352 345
286 122 114 86 57 53 99 114 118 107 103 95 87 75 67 63 78 78 78 76 84 95 96 88 73 57 24 5 354 8 14 26 357 341 351 320 326 320 314 331 347 351 348
159 139 135 118 91 75 110 121 117 113 107 97 89 82 76 66 72 79 72 66 61 64 81 123 96 68 45 355 12 29 28 33 338 313 348 315 323 316 305 310 334 342 343
158 152 155 130 95 77 99 111 107 100 97 95 99 101 92 72 73 83 72 57 43 34 37 64 108 123 141 104 100 102 97 18 317 324 25 346 317 310 307 317 336 340 339
164 163 161 140 111 93 102 111 109 102 99 89 88 91 95 85 80 81 76 64 47 29 40 60 71 79 81 72 70 58 41 46 10 321 354 11 319 315 319 328 346 351 343
169 163 162 154 135 121 113 119 120 118 109 97 77 72 82 91 84 82 80 74 61 35 43 54 49 39 39 42 51 62 75 77 52 345 328 1 339 346 340 331 351 356 353
Height
1533 1532 1532 1532 1532 1532 1533 1534 1534 1533 1533 1533 1533 1533 1532 1532 1531 1531 1531 1531 1531 1531 1530 1529 1529 1530 1532 1532 1533 1533 1534 1536 1537 1539 1540 1541 1543 1544 1546 1547 1547 1548 1549
1530 1530 1529 1528 1528 1528 1529 1529 1530 1530 1530 1530 1529 1529 1528 1528 1527 1527 1527 1527 1527 1526 1526 1526 1525 1525 1526 1527 1528 1528 1529 1530 1532 1533 1534 1536 1537 1538 1540 1542 1543 1543 1544
1526 1525 1525 1524 1524 1524 1523 1524 1524 1525 1524 1524 1524 1524 1524 1524 1523 1522 1522 1522 1522 1522 1521 1520 1520 1520 1520 1520 1522 1523 1524 1525 1526 1527 1529 1530 1531 1532 1533 1535 1537 1539 1540
1520 1519 1519 1518 1519 1519 1519 1519 1519 1519 1519 1518 1519 1520 1521 1521 1519 1518 1517 1516 1516 1516 1515 1514 1514 1515 1514 1514 1515 1516 1517 1519 1520 1521 1522 1524 1525 1527 1528 1529 1531 1534 1535
1516 1515 1513 1512 1513 1513 1513 1513 1513 1513 1513 1513 1513 1514 1514 1514 1513 1512 1510 1510 1509 1509 1509 1508 1508 1508 1508 1508 1508 1510 1512 1512 1513 1514 1516 1517 1519 1521 1523 1525 1526 1529 1530
1510 1508 1507 1506 1506 1506 1506 1507 1507 1506 1506 1506 1506 1506 1506 1506 1505 1504 1502 1501 1501 1502 1502 1502 1501 1501 1501 1502 1502 1503 1505 1505 1507 1508 1509 1511 1513 1515 1517 1519 1522 1524 1526
1503 1502 1501 1499 1499 1499 1499 1499 1499 1499 1499 1499 1499 1498 1498 1497 1495 1494 1493 1492 1492 1493 1494 1495 1495 1494 1495 1495 1496 1497 1498 1499 1500 1501 1503 1505 1507 1508 1510 1513 1516 1518 1520
1496 1495 1494 1493 1492 1492 1492 1492 1492 1492 1493 1493 1493 1492 1491 1490 1487 1486 1485 1484 1484 1485 1486 1487 1488 1489 1489 1490 1490 1491 1492 1492 1493 1494 1496 1499 1500 1502 1504 1507 1510 1512 1514
1489 1487 1486 1485 1485 1485 1485 1485 1485 1485 1486 1486 1486 1487 1486 1484 1482 1480 1479 1479 1478 1478 1479 1480 1482 1483 1484 1484 1484 1484 1485 1486 1487 1488 1489 1492 1494 1496 1497 1500 1503 1505 1508
1482 1480 1478 1477 1477 1477 1476 1477 1477 1477 1477 1477 1478 1478 1480 1480 1480 1477 1477 1476 1475 1474 1474 1475 1477 1478 1479 1478 1478 1478 1479 1479 1480 1481 1482 1484 1487 1489 1490 1493 1496 1498 1501
1474 1472 1471 1469 1468 1468 1468 1469 1469 1469 1469 1470 1470 1472 1473 1474 1475 1474 1473 1472 1471 1471 1471 1471 1472 1473 1474 1474 1474 1474 1475 1475 1475 1476 1477 1478 1480 1482 1484 1486 1488 1491 1493
1465 1463 1462 1460 1459 1459 1460 1460 1461 1461 1461 1462 1463 1465 1467 1469 1469 1469 1469 1468 1468 1468 1468 1469 1469 1470 1471 1472 1472 1472 1472 1472 1472 1472 1472 1473 1475 1475 1476 1478 1481 1484 1486
1458 1454 1452 1451 1451 1451 1452 1453 1453 1454 1455 1456 1458 1460 1462 1464 1465 1465 1465 1464 1464 1466 1467 1467 1468 1468 1469 1470 1470 1470 1469 1469 1468 1467 1468 1468 1470 1470 1471 1473 1475 1476 1479
1452 1448 1445 1444 1444 1445 1445 1446 1447 1448 1449 1450 1452 1454 1457 1459 1461 1461 1461 1461 1463 1465 1466 1467 1467 1468 1469 1469 1468 1468 1467 1466 1465 1465 1465 1465 1465 1466 1467 1468 1469 1470 1473
1449 1445 1442 1440 1440 1441 1441 1441 1442 1443 1444 1445 1447 1450 1452 1455 1458 1459 1459 1460 1463 1464 1466 1467 1467 1468 1468 1468 1466 1465 1464 1463 1463 1463 1463 1462 1462 1462 1462 1463 1463 1465 1466
1449 1445 1441 1439 1438 1438 1438 1438 1438 1439 1440 1441 1443 1445 1448 1452 1455 1457 1458 1460 1462 1464 1465 1467 1467 1467 1467 1466 1464 1463 1461 1460 1460 1460 1460 1459 1459 1459 1459 1458 1458 1459 1461
1450 1446 1442 1440 1438 1437 1437 1436 1436 1437 1438 1439 1441 1443 1446 1450 1453 1456 1458 1460 1462 1463 1464 1466 1466 1467 1466 1465 1464 1462 1460 1458 1457 1457 1456 1456 1456 1457 1457 1456 1455 1455 1456
1451 1448 1445 1442 1439 1438 1437 1436 1435 1437 1438 1440 1442 1444 1447 1450 1453 1456 1458 1460 1461 1463 1464 1465 1466 1466 1466 1465 1464 1462 1460 1458 1456 1455 1454 1453 1454 1455 1455 1454 1453 1452 1451
1453 1450 1447 1444 1441 1440 1438 1437 1437 1438 1439 1442 1444 1446 1449 1452 1454 1456 1458 1460 1461 1463 1465 1465 1467 1467 1466 1465 1464 1463 1462 1460 1457 1455 1454 1453 1454 1454 1453 1452 1451 1449 1447
1454 1451 1449 1446 1444 1442 1441 1440 1440 1441 1443 1445 1447 1449 1452 1454 1455 1456 1458 1460 1462 1464 1465 1466 1467 1467 1466 1466 1465 1464 1462 1461 1459 1457 1456 1455 1455 1453 1452 1450 1449 1446 1444
1454 1453 1451 1449 1447 1446 1445 1444 1444 1445 1447 1449 1450 1452 1455 1456 1457 1458 1459 1461 1463 1464 1465 1466 1467 1467 1467 1467 1466 1465 1464 1462 1461 1460 1458 1457 1456 1454 1451 1449 1446 1443 1440
1455 1454 1453 1451 1450 1449 1449 1449 1449 1450 1452 1453 1454 1457 1459 1460 1460 1460 1461 1462 1464 1465 1466 1467 1467 1468 1468 1468 1468 1467 1465 1464 1463 1463 1460 1459 1456 1453 1450 1447 1444 1441 1437
1454 1454 1454 1453 1453 1453 1453 1454 1454 1455 1455 1457 1458 1460 1461 1461 1462 1462 1463 1464 1465 1466 1467 1467 1468 1469 1469 1469 1469 1468 1467 1466 1465 1464 1462 1459 1456 1453 1450 1447 1443 1439 1434
1452 1454 1454 1454 1454 1455 1456 1458 1458 1458 1459 1460 1461 1462 1462 1463 1464 1464 1464 1465 1466 1467 1468 1468 1469 1470 1470 1470 1470 1469 1468 1467 1466 1464 1461 1459 1456 1453 1451 1447 1442 1438 1433
1450 1452 1454 1454 1455 1456 1458 1459 1461 1461 1461 1461 1462 1462 1463 1464 1464 1464 1465 1466 1467 1468 1468 1469 1470 1470 1471 1470 1470 1469 1467 1466 1464 1463 1461 1459 1455 1452 1450 1446 1442 1438 1433
1448 1450 1452 1454 1455 1456 1458 1460 1461 1462 1463 1463 1463 1464 1465 1465 1465 1465 1466 1467 1468 1469 1470 1471 1471 1471 1471 1470 1469 1467 1466 1465 1463 1462 1461 1459 1456 1452 1449 1446 1442 1438 1434